Regional Weather Roundup
Issued by NWS

Home | Current Version | Previous Version | Graphics & Text | Print | Product List | Glossary On
Versions: 1 2 3 4 5 6 7 8 9 10 11 12 13 14 15 16 17 18 19 20 21 22 23 24 25 26 27 28 29 30 31 32 33 34 35 36 37 38 39 40 41 42 43 44 45 46 47 48 49 50
000
ASUS43 KDMX 210601
RWRIA

WEATHER ROUNDUP FOR IOWA
NATIONAL WEATHER SERVICE DES MOINES IA
1200 AM CST WED FEB 21 2018

NOTE: "FAIR" INDICATES FEW OR NO CLOUDS BELOW 12,000 FEET WITH NO
SIGNIFICANT WEATHER AND/OR OBSTRUCTIONS TO VISIBILITY.

* - THESE STATIONS ARE NOT NWS STATIONS...THUS NOT UNDER NWS
QUALITY CONTROL.  THEY ALSO DO NOT REPORT WEATHER SUCH
AS PRECIPITATION OR FOG.

IAZ001>003-012>014-020>022-031>034-043>046-210700-
   NORTHWEST IOWA

CITY           SKY/WX    TMP DP  RH WIND       PRES   REMARKS
CARROLL *      CLOUDY    10   7  85 NW13      30.42R WCI  -5
CHEROKEE *     CLOUDY     8   4  84 NW6       30.44R WCI  -3
DENISON *      CLOUDY    10   5  79 N12       30.46R WCI  -4
LE MARS *      CLOUDY     3   0  85 CALM      30.46R
ORANGE CITY *  CLOUDY     3   1  92 CALM      30.42R
SHELDON *      CLOUDY     1   0  92 W7        30.40R WCI -11
SIOUX CITY     CLEAR      7   2  80 NW8       30.48R WCI  -6
6HR MIN TEMP:   7; 6HR MAX TEMP:  13;

SPENCER        MIX PCPN   6   0  76 NW7       30.41R WCI  -6
6HR MIN TEMP:   6; 6HR MAX TEMP:  13; 6HR PCP: TRACE;

STORM LAKE *   CLOUDY     7   3  85 NW9       30.41R WCI  -7
$$

IAZ055>058-069>071-079>083-090>094-210700-
   SOUTHWEST IOWA

CITY           SKY/WX    TMP DP  RH WIND       PRES   REMARKS
ATLANTIC *     CLOUDY    12   7  79 N12       30.43R WCI  -2
AUDUBON *      CLOUDY    10   7  85 NW9       30.42R WCI  -2
CLARINDA *     CLOUDY    16  12  86 N14       30.46R WCI   1
COUNCIL BLFS * CLOUDY    10   9  92 N13       30.44R WCI  -5
CRESTON *      CLOUDY    14  10  85 NW14G22   30.40R WCI  -1
HARLAN  *      CLOUDY    10   7  85 N16       30.46S WCI  -7
LAMONI         MOCLDY    17  12  80 N13       30.37R WCI   4
6HR MIN TEMP:  17; 6HR MAX TEMP:  20;

RED OAK *      CLOUDY    14   7  73 N12G20    30.45R WCI   0
SHENANDOAH *   CLOUDY    14   9  79 N14       30.46R WCI  -1
$$

IAZ047>049-059>061-072>074-084-210700-
   CENTRAL IOWA

CITY           SKY/WX    TMP DP  RH WIND       PRES   REMARKS
AMES           CLOUDY    15   9  76 NW16      30.41R WCI  -1
6HR MIN TEMP:  15; 6HR MAX TEMP:  20;

ANKENY *       CLOUDY    16  10  79 NW13G21   30.42R WCI   2
BOONE *        CLOUDY    14   9  79 MISG      30.39R
CHARITON *     MOCLDY    18  14  86 NW13G20   30.36R WCI   4
DES MOINES     CLOUDY    16  10  77 NW16G23   30.40R WCI   1
6HR MIN TEMP:  16; 6HR MAX TEMP:  20; 6HR PCP: TRACE;

GRINNELL*      MOCLDY    18  14  85 NW15      30.36R WCI   3
KNOXVILLE *    CLOUDY    18  12  79 N13G22    30.36R WCI   4
MARSHALLTOWN   PTCLDY    15  10  80 NW21G26   30.37R WCI  -2
6HR MIN TEMP:  15; 6HR MAX TEMP:  20;

NEWTON *       FLURRIES  16  12  86 NW20      30.38R WCI  -1
PELLA *        CLOUDY    19  13  80 N10       30.39R WCI   7
$$

IAZ004>006-015-016-023>025-035-036-210700-
   NORTH CENTRAL IOWA

CITY           SKY/WX    TMP DP  RH WIND       PRES   REMARKS
CLARION *      CLOUDY    12  10  92 NW16G22   30.39R WCI  -4
ESTHERVILLE    CLEAR      5   0  79 NW13      30.39R WCI -12
6HR MIN TEMP:   5; 6HR MAX TEMP:  12;

FORT DODGE *   PTCLDY    10   5  80 NW7       30.41R WCI  -1
MASON CITY     CLOUDY    11   5  77 NW17      30.38R WCI  -6
6HR MIN TEMP:  10; 6HR MAX TEMP:  14;

FOREST CITY *  FAIR      12   9  85 NW9       30.38R WCI   0
WEBSTER CITY * PTCLDY    12   7  79 NW15      30.38R WCI  -4
IOWA FALLS *   FAIR      14   9  78 NW15      30.38R WCI  -1
$$

IAZ007>011-017>019-026>030-037>042-050>054-066-210700-
   NORTHEAST IOWA

CITY           SKY/WX    TMP DP  RH WIND       PRES   REMARKS
CEDAR RAPIDS   CLOUDY    20  13  74 NW18      30.31R WCI   5
6HR MIN TEMP:  20; 6HR MAX TEMP:  25;

CHARLES CITY * CLOUDY    14  12  92 NW15G22   30.35R WCI  -1
CLINTON *        N/A    N/A N/A N/A MISG        N/A
DECORAH *      FAIR      14  10  85 NW12      30.30R WCI   0
DUBUQUE        CLOUDY    20  12  71 NW17      30.26R WCI   5
6HR MIN TEMP:  20; 6HR MAX TEMP:  27;

MONTICELLO *   MOCLDY    21  14  73 NW12G17   30.30R WCI   9
OELWEIN *      FAIR      16  16 100 NW16      30.32R WCI   0
WATERLOO       FAIR      15  10  80 NW17      30.35R WCI  -1
6HR MIN TEMP:  15; 6HR MAX TEMP:  20; 6HR PCP: TRACE;

$$

IAZ064-065-067-068-078-210700-
   EAST CENTRAL IOWA

CITY           SKY/WX    TMP DP  RH WIND       PRES   REMARKS
DAVENPORT      FAIR      25  17  72 NW18      30.31R WCI  11
6HR MIN TEMP:  25; 6HR MAX TEMP:  30;

IOWA CITY      MOCLDY    22  13  68 NW13G22   30.34R WCI  10
6HR MIN TEMP:  22; 6HR MAX TEMP:  28;

MT. PLEASANT * CLOUDY    23  14  68 N14G25    30.33R WCI  11
MUSCATINE *    FAIR      25  16  68 NW13      30.33R WCI  13
QUAD CITIES    FAIR      25  17  72 NW14G25   30.29R WCI  13
6HR MIN TEMP:  25; 6HR MAX TEMP:  31;

$$

IAZ062-063-075>077-085>089-095>099-210700-
   SOUTHEAST IOWA

CITY           SKY/WX    TMP DP  RH WIND       PRES   REMARKS
BURLINGTON     MOCLDY    24  16  71 NW15G24   30.30R WCI  11
6HR MIN TEMP:  24; 6HR MAX TEMP:  29;

FAIRFIELD *    CLOUDY    21  14  73 NW18G24   30.33R WCI   6
FORT MADISON * CLOUDY    25  19  80 NW15G22   30.32R WCI  12
KEOKUK *       CLOUDY    25  19  80 NW13G18   30.32R WCI  13
OSKALOOSA *    MOCLDY    20  16  84 N13       30.35S WCI   7
OTTUMWA        CLOUDY    20  14  77 NW21      30.34R WCI   4
6HR MIN TEMP:  20; 6HR MAX TEMP:  24;

WASHINGTON *   CLOUDY    21  18  86 N16       30.34R WCI   7
$$

ABBREVIATIONS USED IN REMARKS
   TC - TEMPERATURES IN CELSIUS
  WCI - WIND CHILL INDEX
   HX - HEAT INDEX
  VSB - VISIBILITY
$$





USA.gov is the U.S. government's official web portal to all federal, state and local government web resources and services.